Regional Weather Roundup
Issued by NWS State College, PA

Home | Current Version | Previous Version | Text Only | Print | Product List | Glossary On
Versions: 1 2 3 4 5 6 7 8 9 10 11 12 13 14 15 16 17 18 19 20 21 22 23 24 25 26 27 28 29 30 31 32 33 34 35 36 37 38 39 40 41 42 43 44 45 46 47 48 49 50
000
ASUS41 KCTP 060710
RWRCTP

REGIONAL WEATHER ROUNDUP
NATIONAL WEATHER SERVICE STATE COLLEGE PA
200 AM EST SAT FEB 06 2016

Note: "fair" indicates few or no clouds below 12,000 feet with no
significant weather and/or obstructions to visibility.

* = STATION THAT DOES NOT REPORT PRECIPITATION /E.G. RAIN...SNOW...ETC/
    THUNDER OR FOG.

PAZ002>004-007>009-013>016-020>023-029>032-060800-
WESTERN PENNSYLVANIA

CITY           SKY/WX    TMP DP  RH WIND       PRES   REMARKS
ERIE           CLOUDY    31  19  61 S13       30.25F
MEADVILLE      CLOUDY    29  17  61 S8        30.24F
FRANKLIN*      CLOUDY    25  16  68 S8        30.28F
NEW CASTLE     CLOUDY    29  19  66 S3        30.29F
BEAVER COUNTY  NOT AVBL
BUTLER*        CLOUDY    27  18  69 S5        30.33S
PITTSBURGH INT CLOUDY    27  17  66 S3        30.29F
PITTSBURGH     CLOUDY    27  16  63 S7        30.30F
INDIANA*       PTCLDY    23  19  86 CALM      30.33F
LATROBE        CLOUDY    21  18  86 CALM      30.32F
WASHINGTON CO* CLOUDY    25  18  74 CALM      30.31F
$$

PAZ004>006-010>012-017>019-024>028-033>037-041-042-045-046-049>053-060800-
CENTRAL PENNSYLVANIA

CITY           SKY/WX    TMP DP  RH WIND       PRES   REMARKS
BRADFORD       CLEAR     17  11  77 S3        30.23F
DUBOIS         PTCLDY    23  14  68 S3        30.26F
CLEARFIELD     CLEAR     21  16  81 CALM      30.31S
JOHNSTOWN      CLOUDY    23  12  62 S8        30.25F WCI  14
ALTOONA        CLOUDY    23  15  71 W5        30.31F
STATE COLLEGE  CLEAR     23  16  74 W7        30.33S WCI  15
WILLIAMSPORT   CLOUDY    25  17  72 CALM      30.35F
SELINSGROVE    CLOUDY    23  19  85 CALM      30.37S
FT INDIANTOWN  PTCLDY    31  15  52 W5        30.35F
CAPITAL CITY   CLOUDY    28  15  58 W8        30.38R
HARRISBURG     CLOUDY    28  17  63 NW5       30.37S
YORK           CLOUDY    19  16  88 CALM      30.37S
$$

PAZ038>040-043-044-047-048-054-055-060>062-067>071-060800-
EASTERN PENNSYLVANIA

CITY           SKY/WX    TMP DP  RH WIND       PRES   REMARKS
SCRANTON       CLEAR     21  16  81 S5        30.31S WCI  15
MOUNT POCONO   CLOUDY    21  14  74 W7        30.24F WCI  12
ALLENTOWN      CLOUDY    24  16  71 SW3       30.35S
QUAKERTOWN*    CLOUDY    21  19  93 CALM      30.36S
READING        CLOUDY    29  16  58 W3        30.36S
LANCASTER      CLOUDY    26  17  68 W3        30.37S
COATESVILLE    CLOUDY    28  19  69 CALM      30.37R
POTTSTOWN      CLOUDY    23  19  85 CALM      30.38S
BLUE BELL        N/A     23  23 100 CALM      30.36S
DOYLESTOWN     CLOUDY    24  16  71 CALM      30.35F
WILLOW GROVE   NOT AVBL
NORTH PHILA    CLOUDY    26  19  74 N3        30.39S
PHILADELPHIA   PTCLDY    31  19  61 NW3       30.39S
$$



USA.gov is the U.S. government's official web portal to all federal, state and local government web resources and services.